{"data":{"norad_id":55921,"intl_designator":"2023-037H","name":"STARLINK-5861","alt_names":[],"object_type":"PAYLOAD","status":"ACTIVE","operator":null,"country":"US","launch_date":"2023-03-17","launch_site_code":"AFWTR","launch_vehicle":null,"mission":null,"orbit_class":"UNKNOWN","rcs_meters":null,"size_class":null,"mass_kg":null,"dimensions":null,"purposes":["comms"],"wikipedia_slug":null,"has_3d_model":false,"image_url":null,"decayed_at":null,"tle_current":{"epoch":"2026-05-25T03:57:07.659072Z","epoch_age_seconds":71412,"freshness":"FRESH","line1":"1 55921U 23037H   26145.16467198 -.00000844  00000+0 -62957-4 0  9997","line2":"2 55921  69.9993 111.5871 0003251 265.4358  94.6429 14.98333546174942","mean_motion":14.98333546,"eccentricity":0.0003251,"inclination_deg":69.9993,"raan_deg":111.5871,"arg_perigee_deg":265.4358,"mean_anomaly_deg":94.6429,"bstar":-6.2957e-5,"rev_number":17494,"period_min":96.106771676058,"perigee_km":569.78542110965,"apogee_km":574.30442939745,"semimajor_km":6950.1819252536,"source":"CELESTRAK","updated_at":"2026-05-25T13:38:17.890072Z"}}}